Year,Month,Day,Hour,Minute,Value (Times are PST for temperature in C)
2017,07,04,13,18,16.70
2017,07,04,13,19,16.60
2017,07,04,13,20,16.40
2017,07,04,13,21,16.30
2017,07,04,13,22,16.20
2017,07,04,13,23,16.20
2017,07,04,13,24,16.20
2017,07,04,13,25,16.30
2017,07,04,13,26,16.30
2017,07,04,13,27,16.40
2017,07,04,13,28,16.50
2017,07,04,13,29,16.60
2017,07,04,13,30,16.60
2017,07,04,13,31,16.70
2017,07,04,13,32,16.80
2017,07,04,13,33,16.80
2017,07,04,13,34,16.90
2017,07,04,13,35,17.00
2017,07,04,13,36,17.00
2017,07,04,13,37,17.10
2017,07,04,13,38,17.00
2017,07,04,13,39,16.90
2017,07,04,13,40,16.80
2017,07,04,13,41,16.70
2017,07,04,13,42,16.60
2017,07,04,13,43,16.50
2017,07,04,13,44,16.40
2017,07,04,13,45,16.30
2017,07,04,13,46,16.10
2017,07,04,13,47,16.00
2017,07,04,13,48,15.90
2017,07,04,13,49,15.80
2017,07,04,13,50,15.80
2017,07,04,13,51,15.70
2017,07,04,13,52,15.70
2017,07,04,13,53,15.70
2017,07,04,13,54,15.80
2017,07,04,13,55,15.80
2017,07,04,13,56,15.80
2017,07,04,13,57,15.80
2017,07,04,13,58,15.80
2017,07,04,13,59,15.80
2017,07,04,14,00,15.90
2017,07,04,14,01,16.00
2017,07,04,14,02,16.10
2017,07,04,14,03,16.10
2017,07,04,14,04,16.10
2017,07,04,14,05,16.20
2017,07,04,14,06,16.20
2017,07,04,14,07,16.20
2017,07,04,14,08,16.20
2017,07,04,14,09,16.30
2017,07,04,14,10,16.20
2017,07,04,14,11,16.10
2017,07,04,14,12,16.00
2017,07,04,14,13,15.90
2017,07,04,14,14,15.80
2017,07,04,14,15,15.80
2017,07,04,14,16,15.70
2017,07,04,14,17,15.70
2017,07,04,14,18,15.60
2017,07,04,14,19,15.60
2017,07,04,14,20,15.70
2017,07,04,14,21,15.70
2017,07,04,14,22,15.70
2017,07,04,14,23,15.70
2017,07,04,14,24,15.80
2017,07,04,14,25,15.80
2017,07,04,14,26,15.80
2017,07,04,14,27,15.90
2017,07,04,14,28,16.00
2017,07,04,14,29,16.00
2017,07,04,14,30,16.10
2017,07,04,14,31,16.20
2017,07,04,14,32,16.20
2017,07,04,14,33,16.10
2017,07,04,14,34,16.00
2017,07,04,14,35,15.90
2017,07,04,14,36,15.90
2017,07,04,14,37,15.90
2017,07,04,14,38,15.90
2017,07,04,14,39,15.90
2017,07,04,14,40,15.90
2017,07,04,14,41,15.90
2017,07,04,14,42,16.00
2017,07,04,14,43,16.10
2017,07,04,14,44,16.00
2017,07,04,14,45,16.00
2017,07,04,14,46,15.90
2017,07,04,14,47,15.80
2017,07,04,14,48,15.70
2017,07,04,14,49,15.70
2017,07,04,14,50,15.70
2017,07,04,14,51,15.80
2017,07,04,14,52,15.80
2017,07,04,14,53,15.80
2017,07,04,14,54,15.80
2017,07,04,14,55,15.80
2017,07,04,14,56,15.80
2017,07,04,14,57,15.80
2017,07,04,14,58,15.90
2017,07,04,14,59,15.90
2017,07,04,15,00,16.00
2017,07,04,15,01,16.00
2017,07,04,15,02,16.00
2017,07,04,15,03,16.10
2017,07,04,15,04,16.10
2017,07,04,15,05,16.20
2017,07,04,15,06,16.20
2017,07,04,15,07,16.20
2017,07,04,15,08,16.20
2017,07,04,15,09,16.20
2017,07,04,15,10,16.20
2017,07,04,15,11,16.30
2017,07,04,15,12,16.30
2017,07,04,15,13,16.40
2017,07,04,15,14,16.40
2017,07,04,15,15,16.50
2017,07,04,15,16,16.50
2017,07,04,15,17,16.60
2017,07,04,15,18,16.60
2017,07,04,15,19,16.60
2017,07,04,15,20,16.60
2017,07,04,15,21,16.70
2017,07,04,15,22,16.80
2017,07,04,15,23,16.80
2017,07,04,15,24,16.90
2017,07,04,15,25,16.90
2017,07,04,15,26,16.90
2017,07,04,15,27,17.00
2017,07,04,15,28,17.00
2017,07,04,15,29,16.90
2017,07,04,15,30,17.00
2017,07,04,15,31,17.00
2017,07,04,15,32,17.10
2017,07,04,15,33,17.10
2017,07,04,15,34,17.10
2017,07,04,15,35,17.10
2017,07,04,15,36,17.10
2017,07,04,15,37,17.10
2017,07,04,15,38,17.10
2017,07,04,15,39,17.10
2017,07,04,15,40,17.10
2017,07,04,15,41,17.10
2017,07,04,15,42,17.10
2017,07,04,15,43,17.10
2017,07,04,15,44,17.00
2017,07,04,15,45,17.00
2017,07,04,15,46,17.00
2017,07,04,15,47,17.00
2017,07,04,15,48,17.00
2017,07,04,15,49,17.00
2017,07,04,15,50,17.00
2017,07,04,15,51,17.10
2017,07,04,15,52,17.10
2017,07,04,15,53,17.10
2017,07,04,15,54,17.00
2017,07,04,15,55,17.00
2017,07,04,15,56,17.00
2017,07,04,15,57,17.10
2017,07,04,15,58,17.20
2017,07,04,15,59,17.20
2017,07,04,16,00,17.30
2017,07,04,16,01,17.30
2017,07,04,16,02,17.30
2017,07,04,16,03,17.30
2017,07,04,16,04,17.30
2017,07,04,16,05,17.30
2017,07,04,16,06,17.30
2017,07,04,16,07,17.30
2017,07,04,16,08,17.30
2017,07,04,16,09,17.40
2017,07,04,16,10,17.40
2017,07,04,16,11,17.50
2017,07,04,16,12,17.50
2017,07,04,16,13,17.40
2017,07,04,16,14,17.40
2017,07,04,16,15,17.30
2017,07,04,16,16,17.30
2017,07,04,16,17,17.30
2017,07,04,16,18,17.40
2017,07,04,16,19,17.50
2017,07,04,16,20,17.60
2017,07,04,16,21,17.60
2017,07,04,16,22,17.70
2017,07,04,16,23,17.70
2017,07,04,16,24,17.70
2017,07,04,16,25,17.60
2017,07,04,16,26,17.60
2017,07,04,16,27,17.60
2017,07,04,16,28,17.60
2017,07,04,16,29,17.50
2017,07,04,16,30,17.50
2017,07,04,16,31,17.40
2017,07,04,16,32,17.40
2017,07,04,16,33,17.40
2017,07,04,16,34,17.30
2017,07,04,16,35,17.30
2017,07,04,16,36,17.40
2017,07,04,16,37,17.40
2017,07,04,16,38,17.40
2017,07,04,16,39,17.40
2017,07,04,16,40,17.40
2017,07,04,16,41,17.30
2017,07,04,16,42,17.30
2017,07,04,16,43,17.20
2017,07,04,16,44,17.10
2017,07,04,16,45,17.10
2017,07,04,16,46,17.10
2017,07,04,16,47,17.10
2017,07,04,16,48,17.10
2017,07,04,16,49,17.10
2017,07,04,16,50,17.00
2017,07,04,16,51,17.00
2017,07,04,16,52,16.90
2017,07,04,16,53,16.90
2017,07,04,16,54,16.80
2017,07,04,16,55,16.80
2017,07,04,16,56,16.70
2017,07,04,16,57,16.70
2017,07,04,16,58,16.60
2017,07,04,16,59,16.60
2017,07,04,17,00,16.50
2017,07,04,17,01,16.50
2017,07,04,17,02,16.60
2017,07,04,17,03,16.60
2017,07,04,17,04,16.70
2017,07,04,17,05,16.80
2017,07,04,17,06,16.80
2017,07,04,17,07,16.80
2017,07,04,17,08,16.80
2017,07,04,17,09,16.70
2017,07,04,17,10,16.70
2017,07,04,17,11,16.70
2017,07,04,17,12,16.70
2017,07,04,17,13,16.70
2017,07,04,17,14,16.70
2017,07,04,17,15,16.70
2017,07,04,17,16,16.60
2017,07,04,17,17,16.60
2017,07,04,17,18,16.60
2017,07,04,17,19,16.60
2017,07,04,17,20,16.50
2017,07,04,17,21,16.50
2017,07,04,17,22,16.50
2017,07,04,17,23,16.40
2017,07,04,17,24,16.50
2017,07,04,17,25,16.40
2017,07,04,17,26,16.30
2017,07,04,17,27,16.30
2017,07,04,17,28,16.20
2017,07,04,17,29,16.20
2017,07,04,17,30,16.20
2017,07,04,17,31,16.20
2017,07,04,17,32,16.10
2017,07,04,17,33,16.20
2017,07,04,17,34,16.10
2017,07,04,17,35,16.10
2017,07,04,17,36,16.10
2017,07,04,17,37,16.10
2017,07,04,17,38,16.00
2017,07,04,17,39,16.00
2017,07,04,17,40,16.00
2017,07,04,17,41,16.00
2017,07,04,17,42,16.10
2017,07,04,17,43,16.10
2017,07,04,17,44,16.10
2017,07,04,17,45,16.10
2017,07,04,17,46,16.10
2017,07,04,17,47,16.00
2017,07,04,17,48,16.00
2017,07,04,17,49,16.10
2017,07,04,17,50,16.10
2017,07,04,17,51,16.20
2017,07,04,17,52,16.20
2017,07,04,17,53,16.30
2017,07,04,17,54,16.30
2017,07,04,17,55,16.30
2017,07,04,17,56,16.40
2017,07,04,17,57,16.40
2017,07,04,17,58,16.40
2017,07,04,17,59,16.40
2017,07,04,18,00,16.40
2017,07,04,18,01,16.40
2017,07,04,18,02,16.40
2017,07,04,18,03,16.30
2017,07,04,18,04,16.30
2017,07,04,18,05,16.30
2017,07,04,18,06,16.20
2017,07,04,18,07,16.20
2017,07,04,18,08,16.20
2017,07,04,18,09,16.20
2017,07,04,18,10,16.30
2017,07,04,18,11,16.30
2017,07,04,18,12,16.30
2017,07,04,18,13,16.30
2017,07,04,18,14,16.30
2017,07,04,18,15,16.30
2017,07,04,18,16,16.30
2017,07,04,18,17,16.40
2017,07,04,18,18,16.40
2017,07,04,18,19,16.40
2017,07,04,18,20,16.40
2017,07,04,18,21,16.50
2017,07,04,18,22,16.50
2017,07,04,18,23,16.50
2017,07,04,18,24,16.40
2017,07,04,18,25,16.40
2017,07,04,18,26,16.40
2017,07,04,18,27,16.40
2017,07,04,18,28,16.40
2017,07,04,18,29,16.30
2017,07,04,18,30,16.30
2017,07,04,18,31,16.20
2017,07,04,18,32,16.20
2017,07,04,18,33,16.20
2017,07,04,18,34,16.20
2017,07,04,18,35,16.20
2017,07,04,18,36,16.20
2017,07,04,18,37,16.20
2017,07,04,18,38,16.10
2017,07,04,18,39,16.10
2017,07,04,18,40,16.00
2017,07,04,18,41,16.00
2017,07,04,18,42,16.00
2017,07,04,18,43,15.90
2017,07,04,18,44,15.90
2017,07,04,18,45,15.90
2017,07,04,18,46,15.80
2017,07,04,18,47,15.80
2017,07,04,18,48,15.80
2017,07,04,18,49,15.90
2017,07,04,18,50,15.90
2017,07,04,18,51,15.90
2017,07,04,18,52,15.90
2017,07,04,18,53,15.90
2017,07,04,18,54,15.90
2017,07,04,18,55,15.90
2017,07,04,18,56,15.90
2017,07,04,18,57,15.80
2017,07,04,18,58,15.80
2017,07,04,18,59,15.80
2017,07,04,19,00,15.70
2017,07,04,19,01,15.70
2017,07,04,19,02,15.70
2017,07,04,19,03,15.70
2017,07,04,19,04,15.70
2017,07,04,19,05,15.70
2017,07,04,19,06,15.60
2017,07,04,19,07,15.60
2017,07,04,19,08,15.50
2017,07,04,19,09,15.50
2017,07,04,19,10,15.50
2017,07,04,19,11,15.50
2017,07,04,19,12,15.50
2017,07,04,19,13,15.50
2017,07,04,19,14,15.50
2017,07,04,19,15,15.40
2017,07,04,19,16,15.40
2017,07,04,19,17,15.40
2017,07,04,19,18,15.40
2017,07,04,19,19,15.40
2017,07,04,19,20,15.30
2017,07,04,19,21,15.20
2017,07,04,19,22,15.10
2017,07,04,19,23,15.10
2017,07,04,19,24,15.10
2017,07,04,19,25,15.10
2017,07,04,19,26,15.20
2017,07,04,19,27,15.20
2017,07,04,19,28,15.20
2017,07,04,19,29,15.20
2017,07,04,19,30,15.20
2017,07,04,19,31,15.10
2017,07,04,19,32,15.10
2017,07,04,19,33,15.10
2017,07,04,19,34,15.10
2017,07,04,19,35,15.20
2017,07,04,19,36,15.20
2017,07,04,19,37,15.20
2017,07,04,19,38,15.30
2017,07,04,19,39,15.30
2017,07,04,19,40,15.30
2017,07,04,19,41,15.30
2017,07,04,19,42,15.30
2017,07,04,19,43,15.30
2017,07,04,19,44,15.30
2017,07,04,19,45,15.30
2017,07,04,19,46,15.30
2017,07,04,19,47,15.30
2017,07,04,19,48,15.30
2017,07,04,19,49,15.30
2017,07,04,19,50,15.30
2017,07,04,19,51,15.30
2017,07,04,19,52,15.30
2017,07,04,19,53,15.30
2017,07,04,19,54,15.30
2017,07,04,19,55,15.30
2017,07,04,19,56,15.30
2017,07,04,19,57,15.40
2017,07,04,19,58,15.40
2017,07,04,19,59,15.40
2017,07,04,20,00,15.40
2017,07,04,20,01,15.40
2017,07,04,20,02,15.30
2017,07,04,20,03,15.30
2017,07,04,20,04,15.20
2017,07,04,20,05,15.20
2017,07,04,20,06,15.20
2017,07,04,20,07,15.20
2017,07,04,20,08,15.10
2017,07,04,20,09,15.10
2017,07,04,20,10,15.10
2017,07,04,20,11,15.10
2017,07,04,20,12,15.10
2017,07,04,20,13,15.10
2017,07,04,20,14,15.20
2017,07,04,20,15,15.20
2017,07,04,20,16,15.20
2017,07,04,20,17,15.20
2017,07,04,20,18,15.20
2017,07,04,20,19,15.20
2017,07,04,20,20,15.20
2017,07,04,20,21,15.20
2017,07,04,20,22,15.20
2017,07,04,20,23,15.20
2017,07,04,20,24,15.20
2017,07,04,20,25,15.20
2017,07,04,20,26,15.20
2017,07,04,20,27,15.20
2017,07,04,20,28,15.20
2017,07,04,20,29,15.20
2017,07,04,20,30,15.20
2017,07,04,20,31,15.20
2017,07,04,20,32,15.20
2017,07,04,20,33,15.10
2017,07,04,20,34,15.10
2017,07,04,20,35,15.10
2017,07,04,20,36,15.10
2017,07,04,20,37,15.10
2017,07,04,20,38,15.10
2017,07,04,20,39,15.00
2017,07,04,20,40,15.00
2017,07,04,20,41,15.00
2017,07,04,20,42,15.00
2017,07,04,20,43,14.90
2017,07,04,20,44,14.90
2017,07,04,20,45,14.90
2017,07,04,20,46,14.90
2017,07,04,20,47,14.90
2017,07,04,20,48,14.90
2017,07,04,20,49,14.90
2017,07,04,20,50,14.90
2017,07,04,20,51,14.90
2017,07,04,20,52,14.90
2017,07,04,20,53,14.80
2017,07,04,20,54,14.80
2017,07,04,20,55,14.80
2017,07,04,20,56,14.80
2017,07,04,20,57,14.70
2017,07,04,20,58,14.70
2017,07,04,20,59,14.70
2017,07,04,21,00,14.70
2017,07,04,21,01,14.70
2017,07,04,21,02,14.70
2017,07,04,21,03,14.70
2017,07,04,21,04,14.70
2017,07,04,21,05,14.60
2017,07,04,21,06,14.60
2017,07,04,21,07,14.60
2017,07,04,21,08,14.60
2017,07,04,21,09,14.50
2017,07,04,21,10,14.50
2017,07,04,21,11,14.40
2017,07,04,21,12,14.40
2017,07,04,21,13,14.40
2017,07,04,21,14,14.30
2017,07,04,21,15,14.30
2017,07,04,21,16,14.30
2017,07,04,21,17,14.20
2017,07,04,21,18,14.20
2017,07,04,21,19,14.20
2017,07,04,21,20,14.20
2017,07,04,21,21,14.20
2017,07,04,21,22,14.20
2017,07,04,21,23,14.20
2017,07,04,21,24,14.20
2017,07,04,21,25,14.20
2017,07,04,21,26,14.20
2017,07,04,21,27,14.20
